QPF
0.00 0.00 0.00 0.00 0.00 0.00 0.00 0.00 0.00 0.00 0.00 0.00 0.00 0.00 0.00 0.00 0.00 0.00 0.00 0.00 0.00 0.00 0.01 0.02 0.02 0.01 0.01 0.01 0.01 0.02 0.01 0.02 0.03 0.03 0.04 0.04 0.03 0.04 0.04 0.05 0.05 0.03 0.03 0.02
0.00 0.00 0.00 0.00 0.00 0.00 0.00 0.00 0.00 0.00 0.00 0.00 0.00 0.00 0.00 0.00 0.00 0.00 0.00 0.00 0.00 0.01 0.02 0.03 0.04 0.03 0.03 0.02 0.03 0.04 0.04 0.03 0.03 0.03 0.04 0.03 0.02 0.04 0.06 0.07 0.06 0.05 0.03 0.02
0.00 0.00 0.00 0.00 0.00 0.00 0.00 0.00 0.00 0.00 0.00 0.00 0.00 0.00 0.00 0.00 0.00 0.00 0.00 0.00 0.00 0.00 0.01 0.02 0.03 0.04 0.05 0.05 0.03 0.04 0.06 0.04 0.03 0.03 0.03 0.02 0.03 0.03 0.02 0.03 0.04 0.04 0.03 0.03
0.00 0.00 0.00 0.00 0.00 0.00 0.00 0.00 0.00 0.00 0.00 0.00 0.00 0.00 0.00 0.00 0.00 0.00 0.00 0.00 0.00 0.01 0.01 0.02 0.03 0.04 0.05 0.05 0.05 0.04 0.05 0.05 0.04 0.03 0.02 0.02 0.02 0.02 0.02 0.02 0.02 0.02 0.02 0.02
0.00 0.00 0.00 0.00 0.00 0.00 0.00 0.00 0.00 0.00 0.00 0.01 0.01 0.01 0.01 0.01 0.01 0.01 0.01 0.01 0.01 0.01 0.02 0.02 0.02 0.03 0.05 0.09 0.09 0.04 0.04 0.04 0.03 0.03 0.02 0.01 0.01 0.01 0.02 0.02 0.02 0.02 0.02 0.01
0.00 0.00 0.00 0.00 0.00 0.00 0.00 0.00 0.01 0.01 0.01 0.01 0.01 0.01 0.01 0.01 0.02 0.02 0.02 0.01 0.01 0.01 0.02 0.03 0.03 0.04 0.06 0.08 0.06 0.03 0.03 0.03 0.03 0.02 0.02 0.02 0.02 0.01 0.01 0.01 0.02 0.02 0.02 0.02
0.00 0.00 0.00 0.00 0.00 0.00 0.00 0.00 0.01 0.01 0.02 0.02 0.02 0.02 0.02 0.02 0.02 0.02 0.02 0.01 0.02 0.03 0.03 0.03 0.03 0.04 0.05 0.05 0.05 0.04 0.03 0.03 0.02 0.02 0.02 0.01 0.01 0.01 0.01 0.01 0.00 0.01 0.01 0.01
0.00 0.00 0.00 0.00 0.00 0.00 0.00 0.00 0.01 0.02 0.04 0.04 0.03 0.03 0.04 0.04 0.03 0.02 0.02 0.02 0.03 0.04 0.04 0.04 0.05 0.06 0.07 0.06 0.05 0.04 0.03 0.02 0.01 0.02 0.01 0.02 0.01 0.01 0.01 0.01 0.00 0.00 0.01 0.01
0.00 0.00 0.00 0.00 0.00 0.00 0.01 0.01 0.01 0.02 0.03 0.04 0.05 0.04 0.04 0.04 0.04 0.04 0.03 0.04 0.05 0.06 0.05 0.06 0.07 0.09 0.09 0.08 0.06 0.05 0.05 0.03 0.02 0.03 0.03 0.03 0.03 0.02 0.01 0.01 0.01 0.01 0.01 0.01
0.01 0.01 0.01 0.01 0.01 0.01 0.01 0.01 0.01 0.02 0.02 0.02 0.02 0.03 0.04 0.04 0.05 0.06 0.06 0.06 0.07 0.09 0.10 0.10 0.10 0.10 0.11 0.12 0.10 0.08 0.06 0.05 0.05 0.04 0.03 0.04 0.03 0.02 0.02 0.01 0.02 0.02 0.02 0.02
0.01 0.01 0.02 0.01 0.01 0.02 0.02 0.02 0.02 0.03 0.03 0.03 0.03 0.04 0.05 0.06 0.07 0.08 0.08 0.07 0.09 0.12 0.13 0.14 0.15 0.14 0.13 0.12 0.11 0.09 0.07 0.06 0.05 0.04 0.04 0.03 0.03 0.03 0.03 0.03 0.03 0.03 0.02 0.01
0.01 0.01 0.02 0.02 0.02 0.02 0.03 0.03 0.05 0.07 0.08 0.09 0.08 0.07 0.08 0.08 0.08 0.08 0.08 0.07 0.07 0.10 0.13 0.13 0.15 0.15 0.14 0.14 0.14 0.13 0.11 0.09 0.09 0.08 0.07 0.06 0.06 0.05 0.04 0.04 0.04 0.03 0.03 0.02
0.01 0.01 0.02 0.02 0.03 0.03 0.04 0.05 0.06 0.07 0.09 0.11 0.11 0.09 0.09 0.10 0.11 0.10 0.10 0.11 0.13 0.14 0.15 0.15 0.14 0.16 0.16 0.15 0.16 0.16 0.15 0.13 0.11 0.09 0.07 0.07 0.07 0.06 0.05 0.04 0.03 0.03 0.03 0.03
0.01 0.01 0.02 0.03 0.04 0.04 0.05 0.07 0.10 0.09 0.07 0.08 0.09 0.09 0.08 0.10 0.13 0.13 0.13 0.12 0.11 0.12 0.13 0.15 0.15 0.14 0.15 0.14 0.15 0.14 0.13 0.12 0.10 0.08 0.07 0.06 0.06 0.05 0.04 0.04 0.03 0.02 0.02 0.02
0.01 0.01 0.01 0.01 0.02 0.03 0.04 0.05 0.06 0.07 0.07 0.06 0.07 0.07 0.06 0.08 0.13 0.16 0.16 0.16 0.15 0.13 0.10 0.11 0.11 0.10 0.09 0.08 0.09 0.09 0.09 0.09 0.08 0.07 0.06 0.04 0.04 0.04 0.04 0.04 0.03 0.02 0.02 0.01
0.01 0.00 0.01 0.01 0.01 0.01 0.02 0.03 0.03 0.03 0.04 0.04 0.05 0.06 0.07 0.07 0.07 0.10 0.12 0.14 0.14 0.10 0.07 0.07 0.07 0.08 0.07 0.07 0.07 0.06 0.06 0.07 0.07 0.07 0.05 0.05 0.05 0.04 0.04 0.04 0.04 0.03 0.02 0.02
0.02 0.02 0.01 0.01 0.01 0.01 0.03 0.05 0.05 0.03 0.03 0.04 0.03 0.05 0.06 0.08 0.07 0.07 0.08 0.08 0.08 0.08 0.07 0.07 0.07 0.07 0.07 0.07 0.05 0.04 0.04 0.04 0.04 0.05 0.05 0.05 0.04 0.04 0.03 0.02 0.02 0.02 0.02 0.03
0.02 0.03 0.02 0.02 0.02 0.02 0.02 0.03 0.06 0.05 0.04 0.03 0.03 0.03 0.03 0.04 0.05 0.06 0.08 0.08 0.07 0.06 0.05 0.05 0.06 0.05 0.05 0.04 0.03 0.02 0.02 0.02 0.02 0.02 0.02 0.02 0.02 0.02 0.02 0.01 0.01 0.01 0.01 0.01
0.02 0.02 0.03 0.03 0.03 0.02 0.02 0.02 0.03 0.05 0.05 0.03 0.02 0.02 0.02 0.03 0.04 0.05 0.05 0.05 0.05 0.04 0.03 0.02 0.02 0.02 0.02 0.02 0.02 0.02 0.01 0.01 0.01 0.01 0.01 0.01 0.01 0.01 0.01 0.01 0.01 0.01 0.01 0.00
0.01 0.01 0.01 0.02 0.02 0.03 0.02 0.02 0.02 0.02 0.03 0.03 0.03 0.03 0.03 0.03 0.03 0.03 0.03 0.03 0.02 0.02 0.02 0.01 0.01 0.01 0.01 0.02 0.01 0.01 0.01 0.01 0.01 0.01 0.01 0.01 0.01 0.00 0.00 0.00 0.00 0.01 0.01 0.01
0.01 0.02 0.02 0.01 0.02 0.02 0.02 0.01 0.01 0.01 0.01 0.02 0.02 0.02 0.02 0.02 0.02 0.02 0.03 0.02 0.02 0.01 0.01 0.01 0.01 0.01 0.01 0.01 0.01 0.01 0.01 0.01 0.01 0.01 0.01 0.01 0.01 0.01 0.01 0.01 0.01 0.01 0.01 0.01
0.02 0.03 0.03 0.02 0.02 0.02 0.02 0.01 0.01 0.01 0.02 0.02 0.02 0.02 0.02 0.02 0.02 0.02 0.02 0.03 0.03 0.03 0.02 0.02 0.01 0.01 0.01 0.01 0.01 0.01 0.01 0.01 0.01 0.01 0.02 0.02 0.01 0.01 0.01 0.01 0.01 0.01 0.01 0.01
0.04 0.04 0.04 0.04 0.04 0.03 0.02 0.01 0.01 0.01 0.02 0.02 0.02 0.02 0.02 0.02 0.02 0.03 0.03 0.03 0.03 0.03 0.03 0.04 0.04 0.03 0.02 0.02 0.02 0.02 0.02 0.01 0.01 0.02 0.02 0.03 0.03 0.03 0.04 0.04 0.03 0.03 0.02 0.02
0.05 0.05 0.05 0.04 0.02 0.02 0.02 0.01 0.01 0.01 0.01 0.02 0.03 0.03 0.03 0.03 0.03 0.04 0.05 0.05 0.05 0.05 0.06 0.06 0.06 0.05 0.03 0.02 0.02 0.03 0.02 0.02 0.03 0.03 0.03 0.03 0.04 0.04 0.04 0.03 0.03 0.03 0.02 0.02
0.05 0.05 0.06 0.04 0.02 0.02 0.02 0.02 0.02 0.02 0.02 0.02 0.02 0.02 0.03 0.04 0.05 0.06 0.07 0.07 0.07 0.07 0.07 0.07 0.08 0.09 0.07 0.05 0.04 0.04 0.04 0.04 0.04 0.04 0.04 0.03 0.03 0.03 0.03 0.03 0.03 0.02 0.02 0.02
0.03 0.04 0.05 0.04 0.03 0.03 0.03 0.04 0.06 0.06 0.04 0.02 0.02 0.02 0.02 0.04 0.05 0.06 0.07 0.07 0.07 0.07 0.07 0.08 0.09 0.10 0.10 0.09 0.08 0.08 0.07 0.06 0.05 0.04 0.04 0.04 0.04 0.04 0.04 0.04 0.05 0.05 0.04 0.03
0.03 0.04 0.04 0.03 0.03 0.03 0.03 0.03 0.04 0.03 0.02 0.02 0.01 0.01 0.02 0.03 0.04 0.04 0.05 0.05 0.05 0.06 0.07 0.06 0.07 0.06 0.06 0.06 0.07 0.07 0.06 0.05 0.04 0.04 0.04 0.04 0.04 0.05 0.04 0.04 0.04 0.04 0.03 0.03
MSLP
1013.82 1014.14 1014.56 1015.05 1015.55 1015.98 1016.24 1016.27 1016.02 1015.50 1014.75 1013.86 1012.93 1012.08 1011.40 1010.97 1010.81 1010.89 1011.17 1011.58 1012.04 1012.47 1012.84 1013.12 1013.33 1013.49 1013.65 1013.83 1014.05 1014.31 1014.60 1014.88 1015.11 1015.29 1015.38 1015.41 1015.40 1015.38 1015.40 1015.49 1015.67 1015.93 1016.27 1016.64
1013.93 1014.15 1014.42 1014.73 1015.03 1015.26 1015.36 1015.29 1015.02 1014.55 1013.92 1013.19 1012.44 1011.75 1011.20 1010.82 1010.65 1010.67 1010.84 1011.12 1011.46 1011.81 1012.13 1012.43 1012.71 1012.98 1013.26 1013.57 1013.89 1014.23 1014.56 1014.85 1015.07 1015.22 1015.28 1015.28 1015.26 1015.25 1015.29 1015.40 1015.62 1015.91 1016.28 1016.67
1014.21 1014.32 1014.45 1014.58 1014.70 1014.75 1014.72 1014.56 1014.27 1013.85 1013.32 1012.72 1012.11 1011.55 1011.07 1010.72 1010.50 1010.42 1010.46 1010.59 1010.79 1011.04 1011.32 1011.62 1011.96 1012.33 1012.73 1013.16 1013.60 1014.03 1014.41 1014.73 1014.95 1015.09 1015.14 1015.14 1015.12 1015.12 1015.19 1015.34 1015.59 1015.92 1016.31 1016.72
1014.66 1014.66 1014.65 1014.62 1014.57 1014.47 1014.31 1014.08 1013.76 1013.37 1012.92 1012.42 1011.91 1011.42 1010.98 1010.61 1010.33 1010.14 1010.03 1010.02 1010.09 1010.23 1010.46 1010.77 1011.15 1011.61 1012.12 1012.67 1013.22 1013.74 1014.20 1014.56 1014.81 1014.97 1015.03 1015.04 1015.04 1015.08 1015.17 1015.36 1015.63 1015.99 1016.38 1016.79
1015.20 1015.10 1014.96 1014.78 1014.57 1014.33 1014.07 1013.77 1013.44 1013.06 1012.66 1012.22 1011.78 1011.33 1010.90 1010.50 1010.15 1009.84 1009.61 1009.46 1009.41 1009.48 1009.66 1009.96 1010.39 1010.92 1011.53 1012.19 1012.84 1013.46 1013.99 1014.42 1014.72 1014.92 1015.02 1015.07 1015.11 1015.18 1015.31 1015.51 1015.80 1016.15 1016.54 1016.92
1015.75 1015.53 1015.26 1014.95 1014.62 1014.27 1013.92 1013.57 1013.21 1012.85 1012.48 1012.09 1011.69 1011.27 1010.84 1010.41 1009.99 1009.60 1009.26 1009.01 1008.87 1008.87 1009.01 1009.32 1009.77 1010.36 1011.05 1011.79 1012.54 1013.24 1013.85 1014.35 1014.73 1014.99 1015.16 1015.26 1015.35 1015.46 1015.62 1015.84 1016.12 1016.45 1016.80 1017.14
1016.17 1015.84 1015.46 1015.05 1014.62 1014.20 1013.79 1013.40 1013.04 1012.69 1012.35 1012.00 1011.64 1011.25 1010.82 1010.38 1009.92 1009.48 1009.08 1008.76 1008.56 1008.50 1008.62 1008.91 1009.38 1010.00 1010.73 1011.53 1012.35 1013.12 1013.81 1014.39 1014.85 1015.20 1015.44 1015.62 1015.78 1015.93 1016.11 1016.33 1016.59 1016.88 1017.17 1017.45
1016.37 1015.95 1015.49 1015.01 1014.53 1014.06 1013.64 1013.25 1012.90 1012.59 1012.29 1011.99 1011.67 1011.31 1010.92 1010.49 1010.03 1009.57 1009.14 1008.79 1008.55 1008.46 1008.54 1008.81 1009.27 1009.88 1010.62 1011.44 1012.29 1013.11 1013.86 1014.51 1015.06 1015.49 1015.83 1016.10 1016.33 1016.53 1016.74 1016.96 1017.18 1017.42 1017.64 1017.84
1016.33 1015.84 1015.33 1014.82 1014.33 1013.87 1013.46 1013.11 1012.81 1012.55 1012.31 1012.08 1011.82 1011.52 1011.18 1010.79 1010.36 1009.92 1009.50 1009.14 1008.88 1008.76 1008.81 1009.04 1009.44 1010.01 1010.71 1011.51 1012.34 1013.17 1013.96 1014.67 1015.30 1015.82 1016.26 1016.62 1016.92 1017.18 1017.41 1017.63 1017.83 1018.01 1018.16 1018.29
1016.04 1015.53 1015.01 1014.51 1014.05 1013.64 1013.30 1013.01 1012.79 1012.60 1012.45 1012.29 1012.11 1011.89 1011.62 1011.30 1010.93 1010.54 1010.15 1009.80 1009.53 1009.39 1009.38 1009.54 1009.87 1010.35 1010.97 1011.69 1012.48 1013.28 1014.08 1014.83 1015.51 1016.12 1016.64 1017.09 1017.47 1017.79 1018.06 1018.28 1018.45 1018.59 1018.69 1018.75
1015.59 1015.08 1014.59 1014.15 1013.75 1013.43 1013.17 1012.98 1012.84 1012.75 1012.68 1012.61 1012.52 1012.39 1012.21 1011.97 1011.68 1011.35 1011.01 1010.69 1010.43 1010.25 1010.19 1010.26 1010.49 1010.85 1011.35 1011.97 1012.66 1013.41 1014.17 1014.93 1015.65 1016.32 1016.93 1017.46 1017.91 1018.29 1018.60 1018.83 1019.00 1019.11 1019.16 1019.18
1015.08 1014.61 1014.18 1013.81 1013.50 1013.27 1013.11 1013.01 1012.96 1012.96 1012.97 1012.98 1012.98 1012.93 1012.84 1012.69 1012.48 1012.23 1011.96 1011.68 1011.42 1011.22 1011.11 1011.10 1011.21 1011.44 1011.81 1012.29 1012.88 1013.54 1014.25 1014.99 1015.72 1016.44 1017.10 1017.70 1018.22 1018.65 1019.00 1019.25 1019.42 1019.52 1019.56 1019.55
1014.63 1014.20 1013.84 1013.55 1013.33 1013.19 1013.11 1013.08 1013.11 1013.16 1013.23 1013.31 1013.36 1013.39 1013.38 1013.31 1013.19 1013.03 1012.82 1012.60 1012.37 1012.17 1012.01 1011.93 1011.94 1012.06 1012.30 1012.65 1013.12 1013.69 1014.34 1015.04 1015.77 1016.50 1017.20 1017.84 1018.41 1018.89 1019.27 1019.55 1019.73 1019.83 1019.86 1019.84
1014.29 1013.93 1013.63 1013.41 1013.26 1013.18 1013.15 1013.17 1013.22 1013.30 1013.39 1013.49 1013.58 1013.65 1013.70 1013.71 1013.67 1013.60 1013.48 1013.32 1013.15 1012.97 1012.81 1012.69 1012.64 1012.67 1012.81 1013.06 1013.42 1013.90 1014.48 1015.13 1015.84 1016.57 1017.28 1017.95 1018.55 1019.06 1019.46 1019.75 1019.94 1020.04 1020.07 1020.05
1014.12 1013.81 1013.57 1013.39 1013.28 1013.22 1013.20 1013.21 1013.25 1013.31 1013.38 1013.47 1013.56 1013.65 1013.73 1013.80 1013.84 1013.85 1013.83 1013.77 1013.67 1013.56 1013.43 1013.33 1013.26 1013.25 1013.33 1013.51 1013.80 1014.21 1014.73 1015.33 1016.00 1016.70 1017.41 1018.08 1018.68 1019.19 1019.60 1019.89 1020.08 1020.17 1020.20 1020.18
1014.09 1013.82 1013.61 1013.45 1013.34 1013.27 1013.22 1013.19 1013.17 1013.17 1013.19 1013.23 1013.29 1013.38 1013.48 1013.59 1013.70 1013.80 1013.88 1013.92 1013.93 1013.91 1013.87 1013.82 1013.78 1013.79 1013.86 1014.01 1014.27 1014.63 1015.10 1015.65 1016.28 1016.94 1017.62 1018.25 1018.83 1019.32 1019.71 1019.99 1020.16 1020.25 1020.26 1020.24
1014.14 1013.89 1013.69 1013.54 1013.40 1013.29 1013.19 1013.08 1012.99 1012.91 1012.85 1012.82 1012.84 1012.90 1013.00 1013.14 1013.31 1013.50 1013.68 1013.84 1013.97 1014.07 1014.14 1014.18 1014.22 1014.28 1014.38 1014.55 1014.80 1015.13 1015.56 1016.08 1016.65 1017.26 1017.88 1018.47 1019.00 1019.45 1019.80 1020.05 1020.20 1020.26 1020.26 1020.22
1014.18 1013.95 1013.76 1013.59 1013.43 1013.27 1013.09 1012.92 1012.74 1012.57 1012.43 1012.34 1012.30 1012.33 1012.43 1012.60 1012.82 1013.07 1013.35 1013.62 1013.88 1014.10 1014.29 1014.45 1014.59 1014.72 1014.88 1015.08 1015.34 1015.66 1016.06 1016.53 1017.05 1017.60 1018.15 1018.67 1019.14 1019.53 1019.83 1020.03 1020.15 1020.19 1020.17 1020.11
1014.15 1013.94 1013.75 1013.57 1013.38 1013.18 1012.95 1012.72 1012.47 1012.24 1012.04 1011.89 1011.81 1011.82 1011.91 1012.09 1012.35 1012.67 1013.02 1013.39 1013.74 1014.08 1014.38 1014.64 1014.87 1015.09 1015.31 1015.54 1015.81 1016.13 1016.50 1016.92 1017.38 1017.85 1018.33 1018.77 1019.17 1019.50 1019.75 1019.92 1020.00 1020.02 1019.98 1019.92
1013.99 1013.80 1013.63 1013.45 1013.25 1013.03 1012.79 1012.52 1012.24 1011.98 1011.75 1011.57 1011.47 1011.47 1011.56 1011.76 1012.04 1012.39 1012.79 1013.22 1013.65 1014.06 1014.44 1014.78 1015.09 1015.36 1015.62 1015.88 1016.15 1016.45 1016.79 1017.15 1017.54 1017.95 1018.34 1018.72 1019.05 1019.32 1019.53 1019.67 1019.74 1019.76 1019.73 1019.66
1013.71 1013.55 1013.40 1013.24 1013.06 1012.85 1012.62 1012.36 1012.09 1011.84 1011.61 1011.44 1011.35 1011.35 1011.45 1011.65 1011.94 1012.31 1012.74 1013.19 1013.65 1014.10 1014.51 1014.89 1015.22 1015.52 1015.80 1016.06 1016.31 1016.59 1016.87 1017.18 1017.51 1017.84 1018.17 1018.48 1018.76 1019.00 1019.19 1019.32 1019.40 1019.44 1019.43 1019.40
1013.35 1013.22 1013.10 1012.98 1012.84 1012.67 1012.48 1012.26 1012.04 1011.82 1011.64 1011.50 1011.44 1011.46 1011.57 1011.77 1012.07 1012.43 1012.84 1013.29 1013.74 1014.18 1014.59 1014.96 1015.29 1015.58 1015.84 1016.07 1016.30 1016.53 1016.77 1017.02 1017.29 1017.56 1017.84 1018.11 1018.36 1018.59 1018.78 1018.93 1019.05 1019.12 1019.17 1019.19
1012.99 1012.89 1012.81 1012.72 1012.63 1012.52 1012.39 1012.23 1012.08 1011.93 1011.80 1011.72 1011.70 1011.75 1011.88 1012.09 1012.37 1012.71 1013.09 1013.50 1013.91 1014.31 1014.68 1015.02 1015.31 1015.57 1015.79 1015.99 1016.18 1016.36 1016.55 1016.75 1016.97 1017.21 1017.45 1017.70 1017.94 1018.18 1018.39 1018.59 1018.76 1018.90 1019.01 1019.10
1012.73 1012.65 1012.60 1012.55 1012.51 1012.45 1012.38 1012.30 1012.22 1012.14 1012.08 1012.05 1012.08 1012.16 1012.30 1012.51 1012.77 1013.08 1013.43 1013.79 1014.14 1014.49 1014.81 1015.09 1015.34 1015.55 1015.73 1015.88 1016.03 1016.18 1016.33 1016.50 1016.69 1016.90 1017.13 1017.38 1017.64 1017.90 1018.16 1018.41 1018.64 1018.85 1019.04 1019.19
1012.65 1012.59 1012.56 1012.54 1012.53 1012.51 1012.50 1012.47 1012.45 1012.43 1012.43 1012.46 1012.53 1012.63 1012.79 1012.99 1013.23 1013.51 1013.81 1014.12 1014.42 1014.71 1014.98 1015.21 1015.42 1015.59 1015.73 1015.86 1015.98 1016.11 1016.24 1016.39 1016.57 1016.78 1017.02 1017.28 1017.57 1017.86 1018.17 1018.47 1018.77 1019.04 1019.29 1019.50
1012.81 1012.76 1012.73 1012.73 1012.74 1012.75 1012.76 1012.78 1012.79 1012.82 1012.86 1012.92 1013.01 1013.13 1013.29 1013.48 1013.70 1013.95 1014.21 1014.48 1014.75 1015.00 1015.23 1015.43 1015.61 1015.76 1015.89 1016.01 1016.13 1016.25 1016.38 1016.54 1016.73 1016.95 1017.21 1017.49 1017.81 1018.14 1018.48 1018.83 1019.16 1019.48 1019.77 1020.02
1013.22 1013.17 1013.15 1013.15 1013.16 1013.17 1013.20 1013.22 1013.25 1013.29 1013.35 1013.42 1013.52 1013.64 1013.79 1013.97 1014.17 1014.40 1014.64 1014.88 1015.12 1015.35 1015.57 1015.76 1015.94 1016.10 1016.24 1016.38 1016.51 1016.65 1016.81 1016.99 1017.20 1017.44 1017.72 1018.03 1018.36 1018.71 1019.08 1019.44 1019.80 1020.13 1020.43 1020.69
Thickness
5750 5760 5764 5768 5767 5761 5761 5754 5747 5758 5763 5784 5796 5803 5809 5811 5811 5810 5808 5807 5805 5801 5798 5794 5790 5787 5784 5779 5776 5773 5767 5762 5758 5755 5752 5747 5743 5740 5737 5733 5729 5726 5723 5721
5745 5754 5758 5760 5765 5764 5765 5763 5762 5767 5770 5792 5797 5803 5805 5807 5807 5806 5807 5807 5806 5802 5799 5795 5791 5786 5783 5779 5775 5771 5765 5760 5756 5752 5749 5745 5741 5737 5733 5729 5726 5723 5720 5717
5722 5742 5747 5740 5757 5761 5764 5767 5767 5764 5776 5788 5792 5796 5800 5804 5805 5806 5807 5807 5804 5802 5800 5796 5792 5788 5783 5778 5773 5768 5762 5757 5753 5749 5745 5742 5738 5734 5729 5725 5722 5719 5716 5713
5709 5723 5713 5740 5764 5766 5763 5763 5766 5770 5777 5784 5789 5795 5800 5804 5804 5805 5806 5806 5805 5802 5799 5796 5792 5787 5782 5776 5770 5764 5758 5754 5750 5746 5741 5738 5734 5730 5725 5721 5718 5714 5711 5708
5695 5702 5716 5740 5755 5757 5753 5753 5764 5766 5772 5779 5787 5792 5793 5801 5803 5803 5805 5806 5805 5803 5799 5792 5787 5783 5777 5771 5765 5760 5754 5750 5747 5742 5737 5733 5729 5725 5721 5717 5713 5709 5706 5703
5689 5695 5697 5727 5749 5757 5754 5742 5761 5763 5765 5771 5777 5769 5779 5793 5797 5798 5799 5800 5800 5799 5795 5789 5784 5779 5772 5766 5760 5756 5752 5747 5744 5740 5735 5730 5725 5721 5717 5713 5709 5705 5701 5698
5684 5688 5700 5724 5738 5748 5728 5732 5753 5757 5760 5763 5764 5768 5777 5785 5788 5790 5791 5792 5793 5791 5787 5783 5779 5774 5766 5761 5756 5753 5749 5744 5740 5735 5730 5726 5721 5717 5713 5708 5704 5700 5696 5692
5672 5677 5688 5718 5726 5724 5725 5738 5744 5749 5754 5757 5760 5766 5771 5775 5777 5779 5781 5782 5782 5780 5777 5775 5772 5767 5761 5756 5754 5749 5744 5739 5735 5730 5725 5721 5716 5711 5707 5703 5698 5694 5690 5686
5671 5677 5693 5705 5712 5720 5725 5729 5735 5740 5746 5750 5752 5756 5760 5762 5765 5768 5770 5771 5771 5768 5765 5763 5762 5759 5753 5750 5746 5742 5736 5731 5727 5723 5718 5714 5709 5704 5699 5696 5693 5688 5685 5681
5665 5676 5687 5696 5704 5711 5718 5722 5728 5734 5738 5741 5742 5745 5747 5749 5751 5754 5756 5757 5758 5756 5753 5751 5750 5749 5745 5741 5737 5734 5729 5723 5718 5714 5710 5706 5702 5698 5693 5689 5685 5682 5678 5674
5656 5667 5677 5686 5692 5699 5707 5714 5719 5724 5729 5731 5733 5733 5734 5736 5738 5740 5742 5745 5746 5743 5741 5740 5738 5737 5735 5731 5728 5724 5720 5715 5709 5706 5701 5696 5692 5688 5686 5681 5678 5675 5672 5668
5647 5659 5663 5671 5683 5691 5696 5701 5706 5711 5715 5719 5721 5722 5724 5724 5725 5726 5728 5731 5732 5730 5728 5727 5726 5725 5724 5722 5718 5713 5708 5704 5700 5695 5691 5686 5682 5677 5673 5670 5667 5664 5662 5659
5647 5655 5659 5667 5675 5682 5686 5691 5696 5700 5703 5706 5709 5711 5712 5712 5713 5714 5715 5716 5716 5716 5715 5714 5714 5712 5711 5710 5707 5703 5699 5694 5690 5686 5682 5678 5674 5670 5665 5659 5656 5654 5651 5649
5641 5646 5651 5658 5664 5672 5676 5681 5685 5689 5692 5695 5697 5699 5701 5701 5700 5700 5702 5702 5703 5703 5704 5703 5702 5700 5699 5699 5697 5694 5690 5685 5681 5677 5674 5670 5666 5662 5659 5655 5650 5645 5641 5638
5632 5638 5643 5650 5655 5661 5665 5669 5673 5676 5679 5682 5685 5687 5688 5688 5688 5688 5688 5690 5690 5690 5690 5690 5689 5688 5687 5687 5685 5683 5679 5675 5671 5668 5664 5662 5658 5653 5649 5646 5642 5637 5633 5629
5625 5631 5636 5640 5645 5650 5654 5658 5660 5663 5667 5670 5672 5674 5676 5677 5677 5676 5675 5676 5676 5676 5676 5676 5676 5676 5675 5675 5673 5671 5668 5665 5660 5658 5655 5651 5648 5644 5640 5637 5633 5629 5625 5621
5616 5621 5627 5631 5636 5640 5644 5648 5651 5654 5657 5659 5660 5662 5664 5664 5664 5664 5663 5663 5664 5664 5665 5665 5665 5665 5664 5663 5661 5658 5656 5653 5650 5647 5644 5641 5638 5635 5631 5628 5625 5621 5617 5612
5612 5616 5620 5624 5627 5631 5635 5639 5642 5645 5647 5650 5651 5652 5653 5653 5653 5653 5652 5651 5651 5651 5652 5653 5653 5652 5651 5650 5648 5647 5644 5642 5639 5636 5633 5630 5627 5624 5621 5618 5614 5610 5606 5602
5605 5609 5613 5618 5621 5623 5626 5630 5632 5635 5637 5639 5640 5640 5641 5642 5642 5642 5641 5640 5639 5640 5640 5640 5640 5639 5639 5638 5637 5635 5633 5630 5628 5625 5622 5619 5616 5613 5611 5608 5604 5600 5596 5592
5598 5603 5606 5610 5613 5615 5617 5620 5623 5625 5627 5628 5629 5630 5630 5631 5632 5631 5630 5629 5629 5629 5629 5628 5628 5627 5627 5626 5625 5623 5621 5619 5617 5614 5611 5609 5606 5603 5600 5597 5594 5590 5586 5583
5592 5595 5599 5601 5604 5607 5609 5611 5613 5615 5618 5619 5620 5621 5621 5621 5621 5620 5620 5619 5619 5619 5619 5618 5618 5617 5617 5615 5614 5612 5611 5608 5606 5604 5601 5598 5595 5593 5589 5586 5584 5581 5577 5573
5585 5589 5592 5594 5596 5598 5600 5602 5605 5607 5609 5610 5611 5612 5611 5611 5610 5609 5609 5609 5609 5609 5608 5608 5608 5607 5606 5604 5603 5601 5600 5598 5596 5593 5590 5588 5585 5582 5579 5576 5574 5571 5568 5564
5580 5582 5584 5586 5588 5590 5592 5594 5596 5598 5600 5601 5602 5602 5602 5601 5600 5600 5599 5598 5598 5598 5598 5598 5598 5597 5595 5594 5593 5591 5590 5588 5585 5582 5580 5577 5575 5572 5569 5566 5563 5561 5558 5554
5574 5576 5578 5580 5581 5583 5585 5586 5588 5589 5591 5591 5592 5592 5592 5591 5590 5589 5589 5588 5588 5588 5588 5587 5587 5587 5586 5585 5583 5581 5579 5577 5574 5571 5569 5566 5563 5561 5558 5556 5553 5551 5548 5544
5570 5571 5572 5574 5575 5576 5577 5578 5580 5581 5581 5582 5582 5582 5582 5582 5581 5580 5580 5580 5579 5579 5578 5577 5577 5577 5576 5574 5572 5570 5567 5565 5562 5560 5558 5555 5552 5550 5547 5545 5542 5539 5536 5533
5564 5565 5566 5567 5568 5569 5570 5571 5572 5572 5573 5573 5573 5572 5572 5572 5572 5571 5571 5570 5570 5569 5568 5567 5566 5566 5564 5561 5559 5557 5555 5553 5551 5549 5546 5544 5541 5538 5536 5533 5531 5528 5525 5522
5559 5560 5561 5562 5563 5563 5564 5564 5565 5565 5565 5565 5564 5563 5563 5563 5563 5563 5562 5561 5561 5560 5558 5557 5556 5555 5553 5551 5548 5546 5544 5542 5540 5537 5535 5532 5530 5527 5524 5521 5519 5516 5513 5511